Regional Weather Roundup
Issued by NWS Little Rock, AR

Home | Current Version | Previous Version | Text Only | Print | Product List | Glossary Off
Versions: 1 2 3 4 5 6 7 8 9 10 11 12 13 14 15 16 17 18 19 20 21 22 23 24 25 26 27 28 29 30 31 32 33 34 35 36 37 38 39 40 41 42 43 44 45 46 47 48 49 50

000
ASUS44 KLZK 131105
RWRLZK

WEATHER ROUNDUP FOR ARKANSAS
NATIONAL WEATHER SERVICE LITTLE ROCK AR
600 AM CDT SUN JUL 13 2014

NOTE: "FAIR" INDICATES FEW OR NO CLOUDS BELOW 12,000 FEET WITH NO
SIGNIFICANT WEATHER AND/OR OBSTRUCTIONS TO VISIBILITY.

ARZ001-003-010-029-131200-
NORTHWEST ARKANSAS

CITY           SKY/WX    TMP DP  RH WIND       PRES   REMARKS
FAYETTEVILLE   CLEAR     71  67  87 CALM      30.09R
FORT SMITH     CLEAR     74  71  91 CALM      30.06R
HARRISON       CLEAR     78  65  63 W6        30.08R
BENTONVILLE    CLEAR     70  64  83 CALM      30.09S
ROGERS         CLEAR     75  66  73 SW8       30.10R
SILOAM SPGS    CLEAR     72  63  73 S6        30.10R
HIGHFILL       CLEAR     70  67  90 S3        30.09R
SPRINGDALE     CLEAR     73  68  83 S7        30.11
$$

ARZ004-005-016-131200-
NORTH CENTRAL ARKANSAS

CITY           SKY/WX    TMP DP  RH WIND       PRES   REMARKS
BATESVILLE     CLEAR     75  72  88 SW3       30.05R
FLIPPIN        CLEAR     70  66  88 CALM      30.05S
MTN HOME       CLEAR     73  69  87 CALM      30.05S
$$

ARZ040-041-131200-
WEST CENTRAL ARKANSAS

CITY           SKY/WX    TMP DP  RH WIND       PRES   REMARKS
MENA           CLEAR     70 N/A N/A CALM      30.11R
MOUNT IDA      CLEAR     68  67  96 CALM      30.07R FOG
$$

ARZ009-017-025-026-028-131200-
NORTHEAST ARKANSAS

CITY           SKY/WX    TMP DP  RH WIND       PRES   REMARKS
CORNING        FAIR      75  75 100 SW5       30.03S FOG
JONESBORO      CLEAR     77  74  90 SW5       30.04R
NEWPORT        CLEAR     76  75  96 SW3       30.06R
WALNUT RIDGE   CLEAR     75  72  88 SW3       30.03S
BLYTHEVILLE    CLEAR     76  73  91 SW5       30.06R
$$

ARZ022-023-033-042-044-131200-
CENTRAL ARKANSAS

CITY           SKY/WX    TMP DP  RH WIND       PRES   REMARKS
LITTLE ROCK    PTCLDY    75  72  90 SW5       30.06R
N LITTLE ROCK    N/A     78  73  86 SW6       30.06R
JACKSONVILLE   CLEAR     71  71  99 CALM      30.05R
SEARCY         CLEAR     73  73 100 CALM      30.06R
HOT SPRINGS    CLEAR     71  69  93 CALM      30.08R
RUSSELLVILLE   CLEAR     72  70  93 CALM      30.06R
CLINTON        CLOUDY    72  72 100 CALM      30.07R FOG
$$

ARZ036-131200-
EAST ARKANSAS

CITY           SKY/WX    TMP DP  RH WIND       PRES   REMARKS
WEST MEMPHIS   CLEAR     74  74 100 CALM      30.05R
$$

ARZ050-053-066-070-073-131200-
SOUTHWEST ARKANSAS

CITY           SKY/WX    TMP DP  RH WIND       PRES   REMARKS
ARKADELPHIA    PTSUNNY   71  71 100 CALM      30.07R FOG
CAMDEN         FOG       70  68  94 CALM      30.07R VSB 1/4
TEXARKANA      CLEAR     75  71  87 SW3       30.06R
EL DORADO      CLEAR     72  70  93 CALM      30.08R
DE QUEEN       FOG       69  68  96 CALM      30.05S VSB 1/2
$$

ARZ056-057-069-131200-
SOUTHEAST ARKANSAS

CITY           SKY/WX    TMP DP  RH WIND       PRES   REMARKS
PINE BLUFF     CLEAR     73  71  93 CALM      30.07R FOG
MONTICELLO     CLEAR     75  72  90 W3        30.07R

$$





USA.gov is the U.S. government's official web portal to all federal, state and local government web resources and services.